| time (UTC) | temp C | wind direction | speed KPH | gust KPH | rain 1hr cm | rain 24hr cm | rain mn cm | humidity % | barometer mb |
| 20260504130550 | 6 | 360 | 4.8 | 16.1 | 0.00 | 0.00 | 0.00 | 72 | 998.2 |
| 20260504110522 | 8 | 360 | 12.9 | 19.3 | 0.00 | 0.00 | 0.00 | 73 | 996.0 |
| 20260504100510 | 8 | 360 | 4.8 | 8.0 | 0.00 | 0.00 | 0.00 | 71 | 995.1 |
| 20260504090120 | 9 | 360 | 0.0 | 8.0 | 0.00 | 0.00 | 0.00 | 70 | 995.0 |
| 20260504081554 | 10 | 360 | 4.8 | 17.7 | 0.00 | 0.00 | 0.00 | 66 | 995.2 |
| 20260504081049 | 11 | 360 | 6.4 | 17.7 | 0.00 | 0.00 | 0.00 | 65 | 995.0 |
| 20260504080551 | 11 | 360 | 6.4 | 17.7 | 0.00 | 0.00 | 0.00 | 64 | 995.0 |
| 20260504050512 | 14 | 262 | 25.7 | 38.6 | 0.00 | 0.00 | 0.00 | 46 | 994.4 |
| 20260504050015 | 15 | 265 | 25.7 | 38.6 | 0.00 | 0.00 | 0.00 | 45 | 994.5 |
| 20260504045509 | 15 | 254 | 27.4 | 33.8 | 0.00 | 0.00 | 0.00 | 45 | 994.6 |
| 20260504045012 | 15 | 249 | 25.7 | 33.8 | 0.00 | 0.00 | 0.00 | 45 | 994.8 |
| 20260504044519 | 15 | 264 | 25.7 | 30.6 | 0.00 | 0.00 | 0.00 | 45 | 994.9 |
| 20260504044007 | 15 | 267 | 22.5 | 32.2 | 0.00 | 0.00 | 0.00 | 45 | 995.1 |
| 20260504043507 | 15 | 263 | 24.1 | 38.6 | 0.00 | 0.00 | 0.00 | 44 | 995.1 |
| 20260504043006 | 15 | 259 | 24.1 | 37.0 | 0.00 | 0.00 | 0.00 | 44 | 995.2 |
| 20260504042506 | 15 | 269 | 25.7 | 37.0 | 0.00 | 0.00 | 0.00 | 44 | 995.4 |
| 20260504042008 | 15 | 271 | 22.5 | 32.2 | 0.00 | 0.00 | 0.00 | 44 | 995.5 |
| 20260504041504 | 15 | 259 | 25.7 | 32.2 | 0.00 | 0.00 | 0.00 | 43 | 995.6 |
| 20260504041003 | 15 | 258 | 24.1 | 37.0 | 0.00 | 0.00 | 0.00 | 43 | 995.7 |
| 20260504040503 | 15 | 269 | 24.1 | 33.8 | 0.00 | 0.00 | 0.00 | 43 | 995.8 |
| 20260504040002 | 15 | 254 | 22.5 | 33.8 | 0.00 | 0.00 | 0.00 | 43 | 995.9 |
| 20260504035501 | 15 | 254 | 22.5 | 33.8 | 0.00 | 0.00 | 0.00 | 42 | 996.0 |
| 20260504035100 | 15 | 254 | 24.1 | 30.6 | 0.00 | 0.00 | 0.00 | 42 | 996.0 |
| 20260504034605 | 15 | 255 | 22.5 | 33.8 | 0.00 | 0.00 | 0.00 | 43 | 996.2 |
| 20260504034059 | 15 | 253 | 22.5 | 33.8 | 0.00 | 0.00 | 0.00 | 43 | 996.4 |
| 20260504033558 | 15 | 244 | 24.1 | 33.8 | 0.00 | 0.00 | 0.00 | 43 | 996.5 |
| 20260504033114 | 15 | 241 | 22.5 | 30.6 | 0.00 | 0.00 | 0.00 | 43 | 996.6 |
| 20260504032600 | 15 | 243 | 20.9 | 30.6 | 0.00 | 0.00 | 0.00 | 43 | 996.7 |
| 20260504032056 | 15 | 252 | 22.5 | 29.0 | 0.00 | 0.00 | 0.00 | 43 | 996.8 |
| 20260504031555 | 15 | 252 | 20.9 | 27.4 | 0.00 | 0.00 | 0.00 | 43 | 996.9 |
| 20260504031053 | 15 | 253 | 20.9 | 30.6 | 0.00 | 0.00 | 0.00 | 43 | 997.1 |
| 20260504030555 | 16 | 254 | 22.5 | 32.2 | 0.00 | 0.00 | 0.00 | 43 | 997.2 |
| 20260504030052 | 16 | 250 | 22.5 | 32.2 | 0.00 | 0.00 | 0.00 | 43 | 997.2 |
| 20260504025552 | 16 | 254 | 20.9 | 25.7 | 0.00 | 0.00 | 0.00 | 43 | 997.3 |
| 20260504025052 | 16 | 248 | 19.3 | 27.4 | 0.00 | 0.00 | 0.00 | 42 | 997.3 |
| 20260504024551 | 16 | 259 | 20.9 | 29.0 | 0.00 | 0.00 | 0.00 | 42 | 997.3 |
| 20260504024051 | 16 | 252 | 22.5 | 29.0 | 0.00 | 0.00 | 0.00 | 41 | 997.4 |
| 20260504023550 | 16 | 248 | 20.9 | 30.6 | 0.00 | 0.00 | 0.00 | 42 | 997.5 |
| 20260504023051 | 16 | 228 | 20.9 | 30.6 | 0.00 | 0.00 | 0.00 | 42 | 997.5 |
| 20260504022549 | 16 | 259 | 19.3 | 27.4 | 0.00 | 0.00 | 0.00 | 41 | 997.6 |
| 20260504022052 | 16 | 257 | 20.9 | 27.4 | 0.00 | 0.00 | 0.00 | 41 | 997.8 |
| 20260504021547 | 16 | 250 | 19.3 | 27.4 | 0.00 | 0.00 | 0.00 | 40 | 997.8 |
| 20260504021046 | 16 | 255 | 19.3 | 25.7 | 0.00 | 0.00 | 0.00 | 40 | 997.9 |
| 20260504020545 | 16 | 256 | 17.7 | 25.7 | 0.00 | 0.00 | 0.00 | 40 | 998.0 |
| 20260504020045 | 16 | 250 | 16.1 | 22.5 | 0.00 | 0.00 | 0.00 | 39 | 998.1 |
| 20260504015544 | 16 | 259 | 16.1 | 24.1 | 0.00 | 0.00 | 0.00 | 39 | 998.2 |
| 20260504015047 | 16 | 249 | 17.7 | 25.7 | 0.00 | 0.00 | 0.00 | 38 | 998.3 |
| 20260504014542 | 17 | 266 | 17.7 | 25.7 | 0.00 | 0.00 | 0.00 | 38 | 998.4 |
| 20260504014042 | 17 | 256 | 16.1 | 20.9 | 0.00 | 0.00 | 0.00 | 38 | 998.5 |
| 20260504013540 | 17 | 258 | 16.1 | 20.9 | 0.00 | 0.00 | 0.00 | 37 | 998.6 |
| 20260504013043 | 17 | 265 | 12.9 | 19.3 | 0.00 | 0.00 | 0.00 | 37 | 998.7 |
| 20260504012544 | 17 | 275 | 14.5 | 19.3 | 0.00 | 0.00 | 0.00 | 37 | 998.9 |
| 20260504012039 | 17 | 275 | 14.5 | 22.5 | 0.00 | 0.00 | 0.00 | 37 | 999.0 |
| 20260504011538 | 18 | 289 | 14.5 | 22.5 | 0.00 | 0.00 | 0.00 | 36 | 999.0 |
| 20260504011036 | 18 | 272 | 16.1 | 22.5 | 0.00 | 0.00 | 0.00 | 35 | 999.1 |
| 20260504010535 | 19 | 273 | 14.5 | 27.4 | 0.00 | 0.00 | 0.00 | 33 | 999.2 |
| 20260504010046 | 19 | 293 | 20.9 | 30.6 | 0.00 | 0.00 | 0.00 | 33 | 999.3 |
| 20260504005533 | 19 | 272 | 17.7 | 30.6 | 0.00 | 0.00 | 0.00 | 33 | 999.5 |
| 20260504005033 | 20 | 291 | 20.9 | 30.6 | 0.00 | 0.00 | 0.00 | 32 | 999.5 |
| 20260504004532 | 20 | 281 | 22.5 | 35.4 | 0.00 | 0.00 | 0.00 | 31 | 999.6 |
| 20260504004033 | 20 | 277 | 24.1 | 35.4 | 0.00 | 0.00 | 0.00 | 32 | 999.7 |
| 20260504003531 | 20 | 263 | 22.5 | 35.4 | 0.00 | 0.00 | 0.00 | 31 | 999.7 |
| 20260504003030 | 20 | 288 | 25.7 | 35.4 | 0.00 | 0.00 | 0.00 | 31 | 999.7 |
| 20260504002531 | 20 | 293 | 20.9 | 33.8 | 0.00 | 0.00 | 0.00 | 31 | 999.8 |
| 20260504002029 | 20 | 300 | 22.5 | 33.8 | 0.00 | 0.00 | 0.00 | 31 | 1000.0 |
| 20260504001529 | 20 | 313 | 19.3 | 29.0 | 0.00 | 0.00 | 0.00 | 32 | 1000.1 |
| 20260504001029 | 20 | 279 | 19.3 | 27.4 | 0.00 | 0.00 | 0.00 | 31 | 1000.1 |
| 20260504000530 | 20 | 306 | 19.3 | 25.7 | 0.00 | 0.00 | 0.00 | 32 | 1000.2 |
| 20260504000026 | 20 | 279 | 17.7 | 30.6 | 0.00 | 0.00 | 0.00 | 32 | 1000.3 |
| 20260503235525 | 20 | 298 | 20.9 | 48.3 | 0.00 | 0.00 | 0.00 | 31 | 1000.4 |
| 20260503235025 | 20 | 300 | 29.0 | 48.3 | 0.00 | 0.00 | 0.00 | 31 | 1000.4 |
| 20260503234526 | 21 | 298 | 25.7 | 40.2 | 0.00 | 0.00 | 0.00 | 30 | 1000.6 |
| 20260503234024 | 21 | 298 | 27.4 | 40.2 | 0.00 | 0.00 | 0.00 | 30 | 1000.6 |
| 20260503233523 | 21 | 284 | 22.5 | 40.2 | 0.00 | 0.00 | 0.00 | 32 | 1000.6 |
| 20260503233024 | 21 | 303 | 29.0 | 40.2 | 0.00 | 0.00 | 0.00 | 31 | 1000.6 |
| 20260503232522 | 21 | 308 | 25.7 | 33.8 | 0.00 | 0.00 | 0.00 | 31 | 1000.7 |
| 20260503232025 | 21 | 300 | 25.7 | 32.2 | 0.00 | 0.00 | 0.00 | 31 | 1000.7 |
| 20260503231522 | 21 | 289 | 20.9 | 32.2 | 0.00 | 0.00 | 0.00 | 32 | 1000.7 |
| 20260503231021 | 21 | 294 | 22.5 | 32.2 | 0.00 | 0.00 | 0.00 | 30 | 1000.8 |
| 20260503230519 | 21 | 304 | 22.5 | 33.8 | 0.00 | 0.00 | 0.00 | 31 | 1001.0 |
| 20260503230022 | 20 | 294 | 22.5 | 37.0 | 0.00 | 0.00 | 0.00 | 31 | 1001.0 |
| 20260503225516 | 20 | 296 | 20.9 | 35.4 | 0.00 | 0.00 | 0.00 | 31 | 1001.2 |
| 20260503225015 | 20 | 292 | 24.1 | 37.0 | 0.00 | 0.00 | 0.00 | 31 | 1001.3 |
| 20260503224515 | 20 | 287 | 24.1 | 37.0 | 0.00 | 0.00 | 0.00 | 32 | 1001.5 |
| 20260503224023 | 20 | 284 | 20.9 | 32.2 | 0.00 | 0.00 | 0.00 | 32 | 1001.6 |
| 20260503223516 | 20 | 326 | 20.9 | 32.2 | 0.00 | 0.00 | 0.00 | 33 | 1001.7 |
| 20260503223014 | 20 | 287 | 17.7 | 29.0 | 0.00 | 0.00 | 0.00 | 33 | 1001.8 |
| 20260503222513 | 20 | 306 | 14.5 | 32.2 | 0.00 | 0.00 | 0.00 | 33 | 1001.9 |
| 20260503222013 | 20 | 292 | 11.3 | 37.0 | 0.00 | 0.00 | 0.00 | 34 | 1001.9 |
| 20260503221518 | 20 | 294 | 20.9 | 37.0 | 0.00 | 0.00 | 0.00 | 33 | 1002.0 |
| 20260503221012 | 20 | 300 | 20.9 | 32.2 | 0.00 | 0.00 | 0.00 | 32 | 1001.9 |
| 20260503220511 | 20 | 296 | 3.2 | 32.2 | 0.00 | 0.00 | 0.00 | 33 | 1002.0 |
| 20260503220010 | 20 | 310 | 12.9 | 32.2 | 0.00 | 0.00 | 0.00 | 33 | 1002.1 |
| 20260503215510 | 20 | 293 | 22.5 | 32.2 | 0.00 | 0.00 | 0.00 | 31 | 1002.2 |
| 20260503215011 | 20 | 309 | 12.9 | 25.7 | 0.00 | 0.00 | 0.00 | 32 | 1002.3 |
| 20260503214508 | 20 | 304 | 11.3 | 33.8 | 0.00 | 0.00 | 0.00 | 32 | 1002.5 |
| 20260503214012 | 20 | 299 | 27.4 | 33.8 | 0.00 | 0.00 | 0.00 | 31 | 1002.5 |
| 20260503213505 | 20 | 280 | 19.3 | 40.2 | 0.00 | 0.00 | 0.00 | 32 | 1002.6 |
| 20260503213008 | 20 | 294 | 27.4 | 40.2 | 0.00 | 0.00 | 0.00 | 30 | 1002.5 |
| 20260503212503 | 20 | 285 | 17.7 | 30.6 | 0.00 | 0.00 | 0.00 | 31 | 1002.6 |
| 20260503212002 | 20 | 306 | 20.9 | 35.4 | 0.00 | 0.00 | 0.00 | 30 | 1002.8 |
| 20260503211501 | 20 | 281 | 22.5 | 35.4 | 0.00 | 0.00 | 0.00 | 30 | 1003.0 |
| 20260503211102 | 20 | 296 | 25.7 | 32.2 | 0.00 | 0.00 | 0.00 | 31 | 1002.9 |
| 20260503210600 | 20 | 303 | 12.9 | 30.6 | 0.00 | 0.00 | 0.00 | 30 | 1003.2 |
| 20260503210058 | 20 | 306 | 19.3 | 27.4 | 0.00 | 0.00 | 0.00 | 32 | 1003.3 |
| 20260503205557 | 20 | 325 | 9.7 | 32.2 | 0.00 | 0.00 | 0.00 | 30 | 1003.4 |
| 20260503205101 | 20 | 287 | 22.5 | 38.6 | 0.00 | 0.00 | 0.00 | 29 | 1003.5 |
| 20260503204557 | 20 | 283 | 12.9 | 38.6 | 0.00 | 0.00 | 0.00 | 31 | 1003.8 |
| 20260503204053 | 20 | 304 | 25.7 | 38.6 | 0.00 | 0.00 | 0.00 | 30 | 1003.8 |
| 20260503203552 | 20 | 348 | 20.9 | 38.6 | 0.00 | 0.00 | 0.00 | 32 | 1004.1 |
| 20260503203051 | 19 | 271 | 14.5 | 38.6 | 0.00 | 0.00 | 0.00 | 32 | 1004.1 |
| 20260503202550 | 19 | 315 | 17.7 | 38.6 | 0.00 | 0.00 | 0.00 | 31 | 1004.4 |
| 20260503202050 | 19 | 289 | 16.1 | 38.6 | 0.00 | 0.00 | 0.00 | 33 | 1004.4 |
| 20260503201548 | 19 | 303 | 20.9 | 29.0 | 0.00 | 0.00 | 0.00 | 31 | 1004.5 |
| 20260503201053 | 19 | 34 | 16.1 | 30.6 | 0.00 | 0.00 | 0.00 | 34 | 1004.6 |
| 20260503200549 | 19 | 312 | 19.3 | 30.6 | 0.00 | 0.00 | 0.00 | 34 | 1004.7 |
| 20260503200046 | 18 | 279 | 17.7 | 29.0 | 0.00 | 0.00 | 0.00 | 33 | 1004.7 |
| 20260503195545 | 19 | 300 | 11.3 | 29.0 | 0.00 | 0.00 | 0.00 | 33 | 1004.8 |
| 20260503195047 | 19 | 292 | 14.5 | 29.0 | 0.00 | 0.00 | 0.00 | 35 | 1005.0 |
| 20260503194547 | 18 | 292 | 17.7 | 27.4 | 0.00 | 0.00 | 0.00 | 34 | 1005.1 |
| 20260503194043 | 18 | 300 | 14.5 | 25.7 | 0.00 | 0.00 | 0.00 | 34 | 1005.1 |
| 20260503193543 | 18 | 309 | 12.9 | 27.4 | 0.00 | 0.00 | 0.00 | 35 | 1005.2 |
| 20260503193049 | 18 | 289 | 17.7 | 27.4 | 0.00 | 0.00 | 0.00 | 34 | 1005.3 |
| 20260503192540 | 18 | 299 | 12.9 | 24.1 | 0.00 | 0.00 | 0.00 | 36 | 1005.4 |
| 20260503192043 | 18 | 303 | 9.7 | 32.2 | 0.00 | 0.00 | 0.00 | 36 | 1005.6 |
| 20260503191539 | 18 | 301 | 20.9 | 32.2 | 0.00 | 0.00 | 0.00 | 35 | 1005.6 |
| 20260503191038 | 18 | 300 | 9.7 | 29.0 | 0.00 | 0.00 | 0.00 | 36 | 1005.7 |
| 20260503190537 | 18 | 298 | 14.5 | 29.0 | 0.00 | 0.00 | 0.00 | 36 | 1006.0 |
| 20260503190038 | 18 | 290 | 9.7 | 22.5 | 0.00 | 0.00 | 0.00 | 36 | 1006.1 |
| 20260503185535 | 18 | 340 | 9.7 | 19.3 | 0.00 | 0.00 | 0.00 | 37 | 1006.1 |
| 20260503185036 | 17 | 59 | 3.2 | 14.5 | 0.00 | 0.00 | 0.00 | 37 | 1006.2 |
| 20260503184533 | 17 | 35 | 4.8 | 27.4 | 0.00 | 0.00 | 0.00 | 38 | 1006.3 |
| 20260503184033 | 17 | 292 | 16.1 | 24.1 | 0.00 | 0.00 | 0.00 | 37 | 1006.3 |
| 20260503183532 | 17 | 5 | 6.4 | 27.4 | 0.00 | 0.00 | 0.00 | 38 | 1006.5 |
| 20260503183037 | 17 | 303 | 9.7 | 27.4 | 0.00 | 0.00 | 0.00 | 37 | 1006.6 |
| 20260503182530 | 17 | 49 | 9.7 | 22.5 | 0.00 | 0.00 | 0.00 | 40 | 1006.8 |
| 20260503182028 | 17 | 341 | 3.2 | 16.1 | 0.00 | 0.00 | 0.00 | 39 | 1006.9 |
| 20260503181549 | 17 | 11 | 1.6 | 14.5 | 0.00 | 0.00 | 0.00 | 38 | 1007.0 |
| 20260503181028 | 17 | 74 | 4.8 | 16.1 | 0.00 | 0.00 | 0.00 | 43 | 1007.2 |
| 20260503180528 | 16 | 10 | 4.8 | 16.1 | 0.00 | 0.00 | 0.00 | 41 | 1007.1 |
| 20260503180027 | 16 | 53 | 4.8 | 19.3 | 0.00 | 0.00 | 0.00 | 40 | 1007.1 |
| 20260503175524 | 16 | 313 | 11.3 | 19.3 | 0.00 | 0.00 | 0.00 | 37 | 1007.2 |
| 20260503175022 | 16 | 61 | 3.2 | 14.5 | 0.00 | 0.00 | 0.00 | 41 | 1007.3 |
| 20260503174522 | 16 | 43 | 3.2 | 17.7 | 0.00 | 0.00 | 0.00 | 41 | 1007.4 |
| 20260503174021 | 16 | 46 | 6.4 | 20.9 | 0.00 | 0.00 | 0.00 | 39 | 1007.4 |
| 20260503173522 | 16 | 327 | 8.0 | 20.9 | 0.00 | 0.00 | 0.00 | 39 | 1007.7 |
| 20260503173120 | 16 | 302 | 6.4 | 25.7 | 0.00 | 0.00 | 0.00 | 39 | 1007.7 |
| 20260503172518 | 16 | 346 | 6.4 | 25.7 | 0.00 | 0.00 | 0.00 | 39 | 1007.8 |
| 20260503172019 | 16 | 323 | 8.0 | 16.1 | 0.00 | 0.00 | 0.00 | 39 | 1007.8 |
| 20260503171517 | 16 | 28 | 4.8 | 16.1 | 0.00 | 0.00 | 0.00 | 40 | 1007.9 |
| 20260503171016 | 16 | 61 | 6.4 | 16.1 | 0.00 | 0.00 | 0.00 | 44 | 1008.1 |
| 20260503170517 | 16 | 70 | 3.2 | 17.7 | 0.00 | 0.00 | 0.00 | 40 | 1008.1 |
| 20260503150550 | 13 | 76 | 4.8 | 14.5 | 0.00 | 0.00 | 0.00 | 40 | 1008.5 |